Content
SEND FEEDBACK

Daily
Averages
Monthly
Summary
United States of America

VOLCANO, HAWAII


Home > North America > United States > Hawaii
Elevation: 3800 feet     Latitude: 19 26N     Longitude: 155 16W

WEATHER
 
SELECT A DAY
Number of Records: 230,136;   Date Range: 1/1/95 - 8/30/14
 
SHARE

PRINT THIS DATA

[ ← Previous Day ]
WEATHER ALMANAC - APRIL 20, 2013
[ Next Day → ]
[ °C ]   °F
Weather ElementAverageHighLow
Temperature73.5 °F82.9 °F (12:53 pm)64 °F (5:53 am)
Dewpoint64.3 °F66.9 °F (5:53 pm)59 °F (5:53 am)
Humidity73.8 %93 % (1:53 am)54 % (12:53 pm)
Barometer30.07 in30.11 in (8:53 am)30.01 in (2:53 pm)
Wind Speed8.4 mph19.6 mph (12:53 pm)
Wind Gust25.3 mph (2:53 pm)
Weather ElementAverage
Visibility10 mi
Wind DirectionSSE (152.8 °)

Weather ElementTotal
Precipitation---
Cooling Degree Days8.5 (Base 65)
Growing Degree Days23.5 (Base 50)
Averaged from 25 records on April 20, 2013
WEATHER CONDITIONS BREAKOUT
WIND DIRECTION BREAKOUT
WEATHER BY HOUR - APRIL 20, 2013
[ °C ]   °F
Local TimeTemperatureDewpointHumidityBarometerVisibilityWind DirectionWind SpeedGust SpeedPrecipitationEventsConditions
1:53 AM64.9 °F63.0 °F93 %30.08 in10.0 miSW (220°)3.5 mphPartly Cloudy
2:53 AM66.0 °F63.0 °F90 %30.07 in10.0 miWSW (240°)6.9 mphMostly Cloudy
3:53 AM66.0 °F62.1 °F87 %30.06 in10.0 miSW (230°)6.9 mphClear
4:53 AM64.9 °F60.1 °F84 %30.06 in10.0 miSW (230°)8.1 mphClear
5:53 AM64.0 °F59.0 °F84 %30.09 in10.0 miSW (230°)6.9 mphPartly Cloudy
6:53 AM66.0 °F59.0 °F78 %30.10 in10.0 miSW (230°)8.1 mphPartly Cloudy
7:53 AM72.0 °F61.0 °F68 %30.10 in10.0 miSSW (210°)4.6 mphClear
8:53 AM75.9 °F61.0 °F60 %30.11 in10.0 miVariable5.8 mphPartly Cloudy
9:53 AM79.0 °F63.0 °F58 %30.10 in10.0 miVariable4.6 mphScattered Clouds
10:53 AM80.1 °F64.0 °F58 %30.09 in10.0 miSE (140°)8.1 mphPartly Cloudy
11:53 AM82.0 °F66.0 °F58 %30.07 in10.0 miEast (100°)15.0 mphPartly Cloudy
12:53 PM82.9 °F64.9 °F54 %30.04 in10.0 miESE (110°)19.6 mphScattered Clouds
1:53 PM82.0 °F66.0 °F58 %30.02 in10.0 miESE (120°)17.3 mphScattered Clouds
2:53 PM81.0 °F66.0 °F60 %30.01 in10.0 miESE (120°)17.3 mph25.3 mphScattered Clouds
3:53 PM80.1 °F66.0 °F62 %30.01 in10.0 miESE (110°)17.3 mphScattered Clouds
4:53 PM77.0 °F66.0 °F69 %30.02 in10.0 miSE (130°)15.0 mph21.9 mphScattered Clouds
5:53 PM75.9 °F66.9 °F74 %30.03 in10.0 miESE (120°)9.2 mphOvercast
6:53 PM73.9 °F66.0 °F76 %30.05 in10.0 miSE (140°)6.9 mphOvercast
7:53 PM73.9 °F66.0 °F76 %30.06 in10.0 miSouth (190°)5.8 mphOvercast
8:53 PM73.0 °F66.0 °F79 %30.08 in10.0 miSSE (150°)3.5 mphOvercast
9:53 PM72.0 °F66.0 °F81 %30.09 in10.0 miSouth (170°)3.5 mphMostly Cloudy
10:53 PM70.0 °F66.0 °F87 %30.08 in10.0 miSSE (150°)4.6 mphClear
11:10 PM71.1 °F66.0 °F84 %30.08 in10.0 miSSE (150°)3.5 mphMostly Cloudy
11:42 PM72.0 °F66.9 °F84 %30.07 in10.0 miSouth (170°)4.6 mph0.00 inOvercast
11:53 PM72.0 °F66.9 °F84 %30.07 in10.0 miSSE (160°)3.5 mph0.00 inRainLight Rain
Hourly data recorded from PHTO, located miles away from Volcano, Hawaii







STORIES FROM OUR PARTNERS